Weather History for Olathe, KS

Change the Weather History Date:

Sunday, August 12, 2012

  Actual Average Record
Temperature  
Mean Temperature 81 °F 79 °F  
Max Temperature 95 °F 88 °F 100 °F (1999)
Min Temperature 66 °F 69 °F 47 °F (1964)
Degree Days  
Heating Degree Days 0 0  
Month to date heating degree days 0 0  
Since 1 June heating degree days 8 8  
Since 1 July heating degree days 0 0  
Cooling Degree Days 16 14  
Month to date cooling degree days 197 168  
Year to date cooling degree days 1462 940  
Since 1 June cooling degree days 1202 836  
Growing Degree Days 30 (Base 50)    
Moisture  
Dew Point 56 °F    
Average Humidity 45    
Maximum Humidity 66    
Minimum Humidity 24    
Precipitation  
Precipitation 0.01 in 0.11 in 1.82 in (1941)
Month to date precipitation 0.20 1.01  
Year to date precipitation 13.81 25.25  
Sea Level Pressure  
Sea Level Pressure 29.86 in    
Wind  
Wind Speed 10 mph (South)    
Max Wind Speed 21 mph    
Max Gust Speed 26 mph    
Visibility 10 miles    
Events Rain    
T = Trace of Precipitation, MM = Missing Value Source: NWS Daily Summary

Daily Weather History Graph

Daily Weather History Graph

Search for Another Location

Airport:

Trip Planner

Search our weather history database for the weather conditions in past years. The results will help you decide how hot, cold, wet, or windy it might be!

Date:

Astronomy

Aug. 12, 2012 Rise Set
Actual Time 6:30 AM CDT 8:16 PM CDT
Civil Twilight 6:01 AM CDT 8:45 PM CDT
Nautical Twilight 5:26 AM CDT 9:19 PM CDT
Astronomical Twilight 4:49 AM CDT 9:56 PM CDT
Moon 1:45 AM CDT (8/12) 4:41 PM CDT (8/12)
Length of Visible Light 14h 43m
Length of Day
13h 46m
Waning Crescent, 24% of the Moon is Illuminated
Aug 12
Waning Crescent
Aug 17
New
Aug 24
First Quarter
Aug 31
Full
Sep 8
Last Quarter

Hourly Weather History & Observations

Time (CDT) Temp. Heat Index Dew Point Humidity Pressure Visibility Wind Dir Wind Speed Gust Speed Precip Events Conditions
12:53 AM 72.0 °F - 54.0 °F 53% 29.93 in 10.0 mi East 6.9 mph - 0.00 in   Mostly Cloudy
1:53 AM 71.1 °F - 53.1 °F 53% 29.92 in 10.0 mi SSE 5.8 mph - N/A   Partly Cloudy
2:53 AM 71.1 °F - 53.1 °F 53% 29.93 in 10.0 mi ESE 4.6 mph - N/A   Clear
3:53 AM 70.0 °F - 53.1 °F 55% 29.92 in 10.0 mi East 5.8 mph - N/A   Mostly Cloudy
4:53 AM 71.1 °F - 53.1 °F 53% 29.93 in 10.0 mi East 4.6 mph - N/A   Overcast
5:53 AM 69.1 °F - 54.0 °F 58% 29.94 in 10.0 mi ESE 3.5 mph - 0.00 in   Overcast
6:53 AM 66.9 °F - 57.0 °F 70% 29.91 in 10.0 mi SE 9.2 mph - 0.01 in Rain Light Rain
7:53 AM 66.9 °F - 57.0 °F 70% 29.91 in 10.0 mi SE 8.1 mph - 0.00 in   Mostly Cloudy
8:53 AM 69.1 °F - 57.0 °F 65% 29.91 in 10.0 mi South 9.2 mph - N/A   Overcast
9:53 AM 72.0 °F - 57.9 °F 61% 29.91 in 10.0 mi South 8.1 mph - N/A   Mostly Cloudy
10:53 AM 78.1 °F - 57.9 °F 50% 29.91 in 10.0 mi South 12.7 mph - N/A   Clear
11:53 AM 82.0 °F 82.0 °F 57.9 °F 44% 29.88 in 10.0 mi SSW 15.0 mph 26.5 mph N/A   Partly Cloudy
12:53 PM 88.0 °F 86.7 °F 57.0 °F 35% 29.85 in 10.0 mi SSW 13.8 mph 24.2 mph N/A   Clear
1:53 PM 91.0 °F 89.7 °F 57.0 °F 32% 29.82 in 10.0 mi WSW 8.1 mph 21.9 mph N/A   Clear
2:53 PM 91.9 °F 90.3 °F 55.9 °F 30% 29.80 in 10.0 mi SW 12.7 mph 19.6 mph N/A   Partly Cloudy
3:53 PM 91.9 °F 90.6 °F 57.0 °F 31% 29.78 in 10.0 mi SSW 8.1 mph 20.7 mph N/A   Partly Cloudy
4:53 PM 93.0 °F 91.4 °F 55.9 °F 29% 29.76 in 10.0 mi Variable 6.9 mph - N/A   Partly Cloudy
5:53 PM 95.0 °F 92.7 °F 54.0 °F 25% 29.76 in 10.0 mi NW 18.4 mph 26.5 mph N/A   Scattered Clouds
6:03 PM 93.2 °F 90.8 °F 53.6 °F 26% 29.80 in 10.0 mi NW 15.0 mph 21.9 mph N/A   Partly Cloudy
6:53 PM 91.9 °F - 52.0 °F 26% 29.77 in 10.0 mi NW 10.4 mph 20.7 mph N/A   Clear
7:53 PM 88.0 °F 86.5 °F 55.9 °F 34% 29.80 in 10.0 mi NW 15.0 mph 20.7 mph N/A   Clear
8:53 PM 84.0 °F 83.3 °F 57.0 °F 40% 29.82 in 10.0 mi NNW 10.4 mph - N/A   Clear
9:53 PM 81.0 °F 80.8 °F 55.9 °F 42% 29.85 in 10.0 mi NW 10.4 mph 19.6 mph N/A   Clear
10:53 PM 79.0 °F - 59.0 °F 50% 29.87 in 10.0 mi NNW 9.2 mph - N/A   Clear
11:53 PM 75.0 °F - 60.1 °F 60% 29.88 in 10.0 mi NNW 8.1 mph - N/A   Clear